GPS Time, Device Time, Longitude, Latitude,GPS Speed (Meters/second), Horizontal Dilution of Precision, Altitude, Bearing, G(x), G(y), G(z), G(calibrated),Engine RPM(rpm),Mass Air Flow Rate(cfm),Throttle Position(Manifold)(%)
Sun Mar 23 00:06:38 CDT 2014,23-Mar-2014 00:06:37.075,-88.29756444,42.08546871,0.0,4.0,217.39999389648438,0.0,9.91657829,1.03434908,-1.36905301,0.04488486,1032.75,100.26737976,0
Sun Mar 23 00:06:39 CDT 2014,23-Mar-2014 00:06:38.070,-88.29756952,42.08546665,0.0,3.0,217.0,0.0,9.90250778,1.05725145,-1.35737729,0.04355305,1036,99.62567139,0
Sun Mar 23 00:06:40 CDT 2014,23-Mar-2014 00:06:39.069,-88.29757721,42.08546815,0.0,3.0,216.39999389648438,0.0,9.86448669,1.02596653,-1.32429612,0.03895122,1036.75,99.06417084,0.39215687
Sun Mar 23 00:06:41 CDT 2014,23-Mar-2014 00:06:40.067,-88.29758412,42.08546724,0.0,3.0,215.1999969482422,0.0,9.94022942,0.81789917,-1.33312774,0.04474121,1029.5,98.90373993,0.39215687
Sun Mar 23 00:06:42 CDT 2014,23-Mar-2014 00:06:41.070,-88.29759052,42.08546824,0.0,3.0,214.5,0.0,9.87301922,1.3307327,-1.31351852,0.04331356,1056,102.99465179,0
Sun Mar 23 00:06:43 CDT 2014,23-Mar-2014 00:06:42.079,-88.29759649,42.08547073,0.0,4.0,214.3000030517578,0.0,9.86987591,1.0741663,-1.34884501,0.04423469,1041,98.98395538,0
Sun Mar 23 00:06:44 CDT 2014,23-Mar-2014 00:06:43.067,-88.29760007,42.08547249,0.0,3.0,214.3000030517578,0.0,9.90220833,0.99827409,-1.3819263,0.04324919,1018.5,98.26203156,0
Sun Mar 23 00:06:45 CDT 2014,23-Mar-2014 00:06:44.067,-88.29760199,42.08547332,0.0,3.0,214.5,0.0,9.92750549,1.00830317,-1.35932326,0.0455789,1045,98.50267029,0
Sun Mar 23 00:06:46 CDT 2014,23-Mar-2014 00:06:45.072,-88.29760293,42.08547346,0.0,3.0,214.60000610351563,0.0,9.90475273,0.85397416,-1.41066647,0.04255599,1066.25,98.74331665,0
Sun Mar 23 00:06:47 CDT 2014,23-Mar-2014 00:06:46.067,-88.29760361,42.08547377,0.0,3.0,214.39999389648438,0.0,9.90026188,0.90920931,-1.40692425,0.04254538,1024.75,95.85561371,0
Sun Mar 23 00:06:48 CDT 2014,23-Mar-2014 00:06:47.075,-88.29760405,42.08547413,0.0,3.0,214.3000030517578,0.0,9.91523075,1.0099498,-1.39509892,0.0448615,1048.25,98.50267029,0
Sun Mar 23 00:06:48 CDT 2014,23-Mar-2014 00:06:48.066,-88.29760405,42.08547413,0.0,3.0,214.3000030517578,0.0,9.88664055,0.96504319,-1.39150631,0.04219906,1046,96.57753754,0.39215687
Sun Mar 23 00:06:50 CDT 2014,23-Mar-2014 00:06:49.065,-88.29760437,42.08547432,0.0,3.0,214.3000030517578,0.0,9.9631319,1.01294363,-1.36291575,0.04925567,1021.5,97.05882263,0
Sun Mar 23 00:06:51 CDT 2014,23-Mar-2014 00:06:50.067,-88.29760445,42.08547437,0.0,3.0,214.3000030517578,0.0,9.93603802,1.02162552,-1.35243762,0.04647869,1009,96.09625244,0
Sun Mar 23 00:06:52 CDT 2014,23-Mar-2014 00:06:51.068,-88.29760449,42.08547437,0.0,3.0,214.3000030517578,0.0,9.89262772,1.01563799,-1.36052084,0.04216629,1032,96.89839172,0
Sun Mar 23 00:06:53 CDT 2014,23-Mar-2014 00:06:52.066,-88.29760406,42.08547463,0.0,4.0,214.5,0.0,9.84278202,0.93779981,-1.40333176,0.03698665,1055.25,95.05347443,0
Sun Mar 23 00:06:54 CDT 2014,23-Mar-2014 00:06:53.065,-88.29760399,42.08547475,0.0,3.0,214.39999389648438,0.0,9.92151833,0.99213684,-1.35573077,0.0447641,1014.5,94.49197388,0
Sun Mar 23 00:06:55 CDT 2014,23-Mar-2014 00:06:54.065,-88.29760398,42.08547481,0.0,4.0,214.39999389648438,0.0,9.76344681,1.08389604,-1.36665797,0.03001302,1046,93.77005005,0
Sun Mar 23 00:06:56 CDT 2014,23-Mar-2014 00:06:55.066,-88.297604,42.08547481,0.0,4.0,214.39999389648438,0.0,9.9927702,0.77598631,-1.29046643,0.04913121,1016,96.25668335,0.39215687
Sun Mar 23 00:06:57 CDT 2014,23-Mar-2014 00:06:56.066,-88.29760402,42.0854748,0.0,5.0,214.39999389648438,0.0,10.03408432,0.91160429,-1.36875367,0.055489,1010.5,90.88235474,0
Sun Mar 23 00:06:58 CDT 2014,23-Mar-2014 00:06:57.066,-88.29760402,42.08547478,0.0,5.0,214.39999389648438,0.0,9.89487362,0.97612017,-1.23133945,0.0402903,1023,93.12834167,0
Sun Mar 23 00:06:59 CDT 2014,23-Mar-2014 00:06:58.065,-88.29760269,42.08547217,0.25,5.0,214.10000610351563,307.0,9.88065338,1.16278195,-1.29555583,0.04171532,1011.5,94.49197388,0
Sun Mar 23 00:07:00 CDT 2014,23-Mar-2014 00:06:59.065,-88.29760367,42.08547064,0.0,5.0,213.6999969482422,0.0,9.8670311,1.07356751,-1.34854567,0.04004556,1002,96.25668335,0
Sun Mar 23 00:07:01 CDT 2014,23-Mar-2014 00:07:00.068,-88.29760445,42.085469,0.0,4.0,213.60000610351563,0.0,9.86643219,1.10320592,-1.32145202,0.03994566,1021.5,92.16577148,0.39215687
Sun Mar 23 00:07:02 CDT 2014,23-Mar-2014 00:07:01.067,-88.29760466,42.08546896,0.0,4.0,213.6999969482422,0.0,9.94606686,1.05725145,-1.3054353,0.04722947,1041,93.44919586,0
Sun Mar 23 00:07:03 CDT 2014,23-Mar-2014 00:07:02.067,-88.2976043,42.08546926,0.0,3.0,213.89999389648438,0.0,9.91014194,1.04018688,-1.31920671,0.04362053,1035.25,92.88769531,0
Sun Mar 23 00:07:04 CDT 2014,23-Mar-2014 00:07:03.067,-88.29760337,42.08546855,0.0,3.0,213.89999389648438,0.0,9.89711857,1.08958423,-1.32803833,0.04296428,1032.75,94.57218933,0
Sun Mar 23 00:07:05 CDT 2014,23-Mar-2014 00:07:04.065,-88.29760282,42.08546787,0.0,3.0,214.10000610351563,0.0,9.93259525,1.02192485,-1.35483265,0.04616863,1021.5,96.01604462,0
Sun Mar 23 00:07:06 CDT 2014,23-Mar-2014 00:07:05.067,-88.29760419,42.08546756,0.0,4.0,214.0,0.0,9.93109798,1.12775481,-1.2865746,0.04625696,1044.25,93.04813385,0
Sun Mar 23 00:07:07 CDT 2014,23-Mar-2014 00:07:06.067,-88.29760816,42.08546686,0.0,4.0,213.60000610351563,0.0,9.89711857,1.05680239,-1.3307327,0.04264361,1013,91.04278564,0
Sun Mar 23 00:07:08 CDT 2014,23-Mar-2014 00:07:07.067,-88.29761159,42.08546634,0.0,3.0,213.39999389648438,0.0,9.91238689,1.08254886,-1.33896565,0.04089326,1013.75,93.20855713,0
Sun Mar 23 00:07:09 CDT 2014,23-Mar-2014 00:07:08.065,-88.29761461,42.08546528,0.0,4.0,212.6999969482422,0.0,9.91253662,1.03120565,-1.37878275,0.04458147,1009,91.60427856,0
Sun Mar 23 00:07:10 CDT 2014,23-Mar-2014 00:07:09.068,-88.29761849,42.08546437,0.0,3.0,212.1999969482422,0.0,9.92825413,1.14392126,-1.3256433,0.04667312,1013.75,89.91978455,0.39215687
Sun Mar 23 00:07:11 CDT 2014,23-Mar-2014 00:07:10.067,-88.29762035,42.08546423,0.0,3.0,212.1999969482422,0.0,9.91942215,1.08060288,-1.32429612,0.04505545,1008.25,89.35829163,0
Sun Mar 23 00:07:12 CDT 2014,23-Mar-2014 00:07:11.067,-88.2976221,42.08546386,0.0,3.0,212.0,0.0,9.87481499,1.06578374,-1.36411333,0.04095727,1009.75,91.28342438,0
Sun Mar 23 00:07:13 CDT 2014,23-Mar-2014 00:07:12.066,-88.29762307,42.08546386,0.0,3.0,212.0,0.0,9.88768864,1.08853638,-1.31935644,0.04188889,1050,89.5187149,0.39215687
Sun Mar 23 00:07:14 CDT 2014,23-Mar-2014 00:07:13.070,-88.29762461,42.08546353,0.0,3.0,211.8000030517578,0.0,9.90190887,1.08165073,-1.32953525,0.04337817,999,91.52406311,0
Sun Mar 23 00:07:15 CDT 2014,23-Mar-2014 00:07:14.074,-88.2976251,42.0854635,0.0,3.0,211.8000030517578,0.0,9.88694,1.0843451,-1.34255815,0.04208106,1045,86.39038086,0.39215687
Sun Mar 23 00:07:16 CDT 2014,23-Mar-2014 00:07:15.072,-88.29762559,42.08546345,0.0,3.0,211.8000030517578,0.0,9.87167168,1.04856944,-1.31756008,0.03982133,1039.25,86.47058868,0
Sun Mar 23 00:07:17 CDT 2014,23-Mar-2014 00:07:16.067,-88.2976257,42.08546354,0.0,3.0,211.8000030517578,0.0,9.92331409,1.06368804,-1.33342707,0.04538566,1024,86.22994232,0
Sun Mar 23 00:07:18 CDT 2014,23-Mar-2014 00:07:17.072,-88.29762587,42.08546355,0.0,3.0,211.8000030517578,0.0,9.88723946,1.06638241,-1.33896565,0.041866,1024,85.58823395,0
Sun Mar 23 00:07:19 CDT 2014,23-Mar-2014 00:07:18.072,-88.29762607,42.08546345,0.0,3.0,211.8000030517578,0.0,9.88948441,1.08180034,-1.37159777,0.04270869,1046,85.02674103,0
Sun Mar 23 00:07:20 CDT 2014,23-Mar-2014 00:07:19.073,-88.29762625,42.08546333,0.0,4.0,211.6999969482422,0.0,9.91957188,1.08329725,-1.30633342,0.04486078,1028.75,85.10694885,0
Sun Mar 23 00:07:21 CDT 2014,23-Mar-2014 00:07:20.065,-88.29762625,42.0854634,0.0,3.0,211.8000030517578,0.0,9.90684891,1.05635333,-1.33941472,0.04373389,1006.75,85.02674103,0.39215687
Sun Mar 23 00:07:22 CDT 2014,23-Mar-2014 00:07:21.066,-88.29762629,42.08546339,0.0,3.0,211.8000030517578,0.0,9.8953228,1.06563401,-1.34689915,0.0430879,1043.5,82.13903809,0.39215687
Sun Mar 23 00:07:23 CDT 2014,23-Mar-2014 00:07:22.065,-88.29762638,42.08546331,0.0,3.0,211.6999969482422,0.0,9.93019962,1.07386684,-1.29645395,0.0456956,1020.75,82.29946899,0.39215687
Sun Mar 23 00:07:24 CDT 2014,23-Mar-2014 00:07:23.065,-88.29762633,42.08546343,0.0,3.0,211.8000030517578,0.0,9.86493587,1.06009555,-1.31890726,0.03928643,1009.75,81.1764679,0
Sun Mar 23 00:07:25 CDT 2014,23-Mar-2014 00:07:24.066,-88.29762629,42.08546355,0.0,4.0,211.8000030517578,0.0,9.93992996,1.08644068,-1.34689915,0.0474847,1023,81.09625244,0
Sun Mar 23 00:07:26 CDT 2014,23-Mar-2014 00:07:25.070,-88.29762632,42.08546353,0.0,3.0,211.8000030517578,0.0,9.89098167,1.09497297,-1.34195936,0.0425964,1016.75,78.77005005,0
Sun Mar 23 00:07:27 CDT 2014,23-Mar-2014 00:07:26.072,-88.29762629,42.08546359,0.0,3.0,211.8000030517578,0.0,9.89128113,1.07177126,-1.33642089,0.04229599,1002,80.61497498,0
Sun Mar 23 00:07:28 CDT 2014,23-Mar-2014 00:07:27.068,-88.29762619,42.08546382,0.0,3.0,211.89999389648438,0.0,9.84293175,1.07805812,-1.35423386,0.0377534,1005.25,78.8502655,0.39215687
Sun Mar 23 00:07:29 CDT 2014,23-Mar-2014 00:07:28.071,-88.2976261,42.085464,0.0,4.0,211.89999389648438,0.0,9.94636631,1.0981164,-1.33746874,0.048132,982.75,76.12299347,0
Sun Mar 23 00:07:30 CDT 2014,23-Mar-2014 00:07:29.081,-88.29762602,42.08546413,0.0,4.0,211.89999389648438,0.0,9.87646198,1.09422457,-1.32429612,0.04089075,984,77.48662567,0.39215687
Sun Mar 23 00:07:31 CDT 2014,23-Mar-2014 00:07:30.065,-88.29762596,42.08546422,0.0,3.0,211.89999389648438,0.0,9.87646198,1.07985449,-1.36456239,0.04128236,960.5,78.52941132,0.39215687
Sun Mar 23 00:07:32 CDT 2014,23-Mar-2014 00:07:31.067,-88.29762596,42.08546422,0.0,3.0,211.89999389648438,0.0,9.90580082,1.07820785,-1.34839594,0.04398745,1003.5,78.52941132,0
Sun Mar 23 00:07:33 CDT 2014,23-Mar-2014 00:07:32.067,-88.29762596,42.08546423,0.0,3.0,211.89999389648438,0.0,9.87930584,1.08988357,-1.3305831,0.04121298,1025.5,75.80213928,0
Sun Mar 23 00:07:34 CDT 2014,23-Mar-2014 00:07:33.065,-88.29762595,42.08546427,0.0,3.0,211.89999389648438,0.0,9.89876556,1.07611227,-1.31172228,0.04276317,1006.75,77.48662567,0
Sun Mar 23 00:07:35 CDT 2014,23-Mar-2014 00:07:34.068,-88.29762594,42.08546432,0.0,3.0,211.89999389648438,0.0,9.92286491,1.06443644,-1.30932724,0.04502612,993.75,75.96257019,0.39215687
Sun Mar 23 00:07:36 CDT 2014,23-Mar-2014 00:07:35.066,-88.29762591,42.08546434,0.0,3.0,211.89999389648438,0.0,9.89262772,1.08120167,-1.33627117,0.04253227,979,74.19786072,0
Sun Mar 23 00:07:37 CDT 2014,23-Mar-2014 00:07:36.065,-88.29762591,42.08546433,0.0,3.0,211.89999389648438,0.0,9.88229942,1.05276072,-1.32594264,0.0410468,1002.75,74.19786072,0
Sun Mar 23 00:07:38 CDT 2014,23-Mar-2014 00:07:37.067,-88.29762592,42.08546432,0.0,3.0,211.89999389648438,0.0,9.88529301,1.09527242,-1.34899473,0.04212469,1011.5,72.43315125,0.39215687
Sun Mar 23 00:07:39 CDT 2014,23-Mar-2014 00:07:38.066,-88.2976259,42.08546433,0.0,3.0,211.89999389648438,0.0,9.89337635,1.07626188,-1.33986378,0.04260212,985.5,72.75400543,0
Sun Mar 23 00:07:40 CDT 2014,23-Mar-2014 00:07:39.067,-88.29762588,42.08546435,0.0,3.0,211.89999389648438,0.0,9.85445786,1.0894345,-1.35603011,0.03906101,1009.75,72.43315125,0
Sun Mar 23 00:07:41 CDT 2014,23-Mar-2014 00:07:40.065,-88.29762589,42.08546434,0.0,3.0,211.89999389648438,0.0,9.832304,1.08254886,-1.36935246,0.03694612,981.25,72.35294342,0
Sun Mar 23 00:07:42 CDT 2014,23-Mar-2014 00:07:41.065,-88.29762589,42.08546436,0.0,3.0,211.89999389648438,0.0,9.92690659,1.05455709,-1.36935246,0.04614002,969.5,71.71122742,0.39215687
Sun Mar 23 00:07:43 CDT 2014,23-Mar-2014 00:07:42.065,-88.29762589,42.08546441,0.0,3.0,212.0,0.0,9.88349724,1.07611227,-1.33507371,0.04154319,992.25,69.94652557,0
Sun Mar 23 00:07:44 CDT 2014,23-Mar-2014 00:07:43.065,-88.29762589,42.08546445,0.0,3.0,212.0,0.0,9.89382553,1.12446165,-1.36471212,0.04352635,993.75,69.86631012,0
Sun Mar 23 00:07:45 CDT 2014,23-Mar-2014 00:07:44.067,-88.29762591,42.08546446,0.0,3.0,211.89999389648438,0.0,9.91388416,1.06458616,-1.3537848,0.04472512,976.75,67.29946899,0.39215687
Sun Mar 23 00:07:46 CDT 2014,23-Mar-2014 00:07:45.065,-88.29762595,42.08546446,0.0,3.0,211.89999389648438,0.0,9.92032051,1.11143875,-1.32264948,0.04546589,982.75,67.62032318,0
Sun Mar 23 00:07:47 CDT 2014,23-Mar-2014 00:07:46.065,-88.297626,42.08546448,0.0,3.0,211.89999389648438,0.0,9.86972618,1.08239913,-1.34884501,0.04041713,984.75,66.89839935,0.39215687
Sun Mar 23 00:07:48 CDT 2014,23-Mar-2014 00:07:47.065,-88.29762666,42.08546392,0.0,3.0,212.10000610351563,0.0,9.91133881,1.05096447,-1.33552277,0.04407459,957.5,67.94117737,0
Sun Mar 23 00:07:49 CDT 2014,23-Mar-2014 00:07:48.065,-88.29763221,42.08546662,0.0,3.0,212.10000610351563,0.0,9.89981365,1.06278992,-1.34031284,0.04310852,991.5,66.73796844,0
Sun Mar 23 00:07:50 CDT 2014,23-Mar-2014 00:07:49.068,-88.29763639,42.08546861,0.0,4.0,212.3000030517578,0.0,9.88394642,1.06533468,-1.35183883,0.04169995,976,67.37967682,0
Sun Mar 23 00:07:51 CDT 2014,23-Mar-2014 00:07:50.064,-88.29763964,42.08547054,0.0,3.0,212.3000030517578,0.0,9.92331409,1.12775481,-1.32609236,0.04599744,994.5,65.21390533,0
Sun Mar 23 00:07:52 CDT 2014,23-Mar-2014 00:07:51.066,-88.2976426,42.08547183,0.0,3.0,212.1999969482422,0.0,9.92645741,1.09527242,-1.34600103,0.04621691,980.25,64.49198151,0
Sun Mar 23 00:07:53 CDT 2014,23-Mar-2014 00:07:52.066,-88.29764496,42.08547249,0.0,3.0,212.1999969482422,0.0,9.85745144,1.09781706,-1.32339799,0.03900963,1004.25,64.25133514,0.39215687
Sun Mar 23 00:07:54 CDT 2014,23-Mar-2014 00:07:53.067,-88.29764743,42.08547308,0.0,3.0,212.1999969482422,0.0,9.86014557,1.08419538,-1.36411333,0.0396859,974.75,64.9732666,0
Sun Mar 23 00:07:55 CDT 2014,23-Mar-2014 00:07:54.065,-88.29764911,42.08547377,0.0,3.0,212.3000030517578,0.0,9.90175915,1.08374631,-1.37998033,0.04407924,986.25,64.17111969,0
Sun Mar 23 00:07:56 CDT 2014,23-Mar-2014 00:07:55.066,-88.29765009,42.08547384,0.0,3.0,212.1999969482422,0.0,9.87825775,1.05590427,-1.35827541,0.04111558,960.5,62.72727203,0
Sun Mar 23 00:07:57 CDT 2014,23-Mar-2014 00:07:56.066,-88.29765018,42.08547342,0.0,3.0,212.3000030517578,0.0,9.90071106,1.11353445,-1.32758927,0.04358667,975.25,62.56684494,0
Sun Mar 23 00:07:58 CDT 2014,23-Mar-2014 00:07:57.067,-88.29765004,42.08547236,0.0,3.0,212.0,0.0,9.90310669,1.06234086,-1.34540224,0.04350382,997.5,62.40641785,0.39215687
Sun Mar 23 00:07:59 CDT 2014,23-Mar-2014 00:07:58.070,-88.2976498,42.08547159,0.0,3.0,212.0,0.0,9.86643219,1.07745945,-1.35064137,0.04005688,966,61.12299347,0
Sun Mar 23 00:08:00 CDT 2014,23-Mar-2014 00:07:59.073,-88.2976495,42.08547112,0.0,3.0,212.0,0.0,9.92600918,1.07760906,-1.34824634,0.04600841,964,63.36898422,0
Sun Mar 23 00:08:01 CDT 2014,23-Mar-2014 00:08:00.066,-88.29764929,42.08547086,0.0,3.0,212.0,0.0,9.91942215,1.06533468,-1.34255815,0.04513615,985.5,62.1657753,0.39215687
Sun Mar 23 00:08:02 CDT 2014,23-Mar-2014 00:08:01.065,-88.29765085,42.08546999,0.25,3.0,212.0,307.0,9.90954304,1.10335553,-1.34061217,0.04453522,954.75,60.80213928,0.39215687
Sun Mar 23 00:08:03 CDT 2014,23-Mar-2014 00:08:02.067,-88.29765077,42.0854686,0.0,3.0,211.5,0.0,9.88768864,1.1103909,-1.37548971,0.04290086,954.75,60.80213928,0.39215687
Sun Mar 23 00:08:04 CDT 2014,23-Mar-2014 00:08:03.065,-88.29765081,42.0854671,0.0,3.0,211.3000030517578,0.0,9.91133881,1.07431591,-1.34345627,0.04443377,956.25,60.96256638,0
Sun Mar 23 00:08:05 CDT 2014,23-Mar-2014 00:08:04.065,-88.2976494,42.08546589,0.0,3.0,211.3000030517578,0.0,9.87062359,1.07296872,-1.3769865,0.04079407,956.25,61.6844902,0.39215687
Sun Mar 23 00:08:06 CDT 2014,23-Mar-2014 00:08:05.066,-88.29764749,42.08546438,0.0,3.0,211.10000610351563,0.0,9.92032051,1.06219113,-1.33776808,0.04512757,957,61.36363602,0.39215687
Sun Mar 23 00:08:07 CDT 2014,23-Mar-2014 00:08:06.065,-88.297647,42.08546305,0.0,3.0,211.10000610351563,0.0,9.92915249,1.1103909,-1.34645009,0.04666227,940.5,60.48128128,0
Sun Mar 23 00:08:08 CDT 2014,23-Mar-2014 00:08:07.069,-88.29764653,42.08546196,0.0,3.0,210.89999389648438,0.0,9.87975502,1.08165073,-1.36905301,0.04169494,938.25,59.43849945,0.39215687
Sun Mar 23 00:08:09 CDT 2014,23-Mar-2014 00:08:08.068,-88.29764652,42.0854611,0.0,3.0,210.89999389648438,0.0,9.87676144,1.05979609,-1.37234616,0.04120249,954.75,61.52406311,0.39215687
Sun Mar 23 00:08:10 CDT 2014,23-Mar-2014 00:08:09.065,-88.29764658,42.08545994,0.0,3.0,210.89999389648438,0.0,9.96268272,1.07686067,-1.34615064,0.04965514,927.75,60.64170837,0
Sun Mar 23 00:08:11 CDT 2014,23-Mar-2014 00:08:10.072,-88.29764719,42.08545941,0.0,3.0,211.0,0.0,10.42222691,0.93286014,-1.03659439,0.09087676,915.5,59.67914581,0
Sun Mar 23 00:08:12 CDT 2014,23-Mar-2014 00:08:11.065,-88.29764638,42.08546011,0.0,3.0,210.8000030517578,0.0,9.92945194,0.89019883,-1.32384706,0.04415697,908,60.08021164,0
Sun Mar 23 00:08:13 CDT 2014,23-Mar-2014 00:08:12.065,-88.29764549,42.08546109,0.0,3.0,210.89999389648438,0.0,9.6342659,0.99962127,-1.34390533,0.01581681,929.25,58.87700653,0
Sun Mar 23 00:08:14 CDT 2014,23-Mar-2014 00:08:13.068,-88.29764519,42.0854616,0.0,3.0,211.0,0.0,9.9191227,0.92268127,-1.27340198,0.04275137,922.75,59.5187149,0
Sun Mar 23 00:08:15 CDT 2014,23-Mar-2014 00:08:14.066,-88.29764419,42.08546187,0.0,3.0,211.0,0.0,9.87391663,1.00201631,-1.43282044,0.04117364,942.5,58.55615234,0.39215687
Sun Mar 23 00:08:16 CDT 2014,23-Mar-2014 00:08:15.065,-88.29764392,42.0854621,0.0,3.0,211.0,0.0,9.90834522,1.04138446,-1.43805957,0.04511327,935,58.23529434,0
Sun Mar 23 00:08:17 CDT 2014,23-Mar-2014 00:08:16.065,-88.29764311,42.08546218,0.0,3.0,211.10000610351563,0.0,9.88574219,1.05530548,-1.45766878,0.0432815,935,59.27807236,0
Sun Mar 23 00:08:18 CDT 2014,23-Mar-2014 00:08:17.066,-88.29764186,42.0854619,0.0,3.0,211.10000610351563,0.0,9.90310669,1.03105593,-1.43087447,0.04437476,936.5,59.75935745,0
Sun Mar 23 00:08:19 CDT 2014,23-Mar-2014 00:08:18.064,-88.29764055,42.08546134,0.0,3.0,211.0,0.0,9.87616253,1.02521801,-1.43476641,0.04166645,952,60.24064255,0
Sun Mar 23 00:08:20 CDT 2014,23-Mar-2014 00:08:19.066,-88.29763951,42.08546085,0.0,3.0,210.8000030517578,0.0,9.85685253,1.09422457,-1.44015515,0.04055172,941,59.83957291,0
Sun Mar 23 00:08:21 CDT 2014,23-Mar-2014 00:08:20.072,-88.29763846,42.08546026,0.0,3.0,210.6999969482422,0.0,9.89023304,1.02596653,-1.42488694,0.04294294,937.25,59.43849945,0.39215687
Sun Mar 23 00:08:22 CDT 2014,23-Mar-2014 00:08:21.068,-88.29763811,42.08546006,0.0,3.0,210.6999969482422,0.0,9.88125229,1.09796679,-1.40991807,0.04260248,943.25,60.16042709,0
Sun Mar 23 00:08:23 CDT 2014,23-Mar-2014 00:08:22.065,-88.29763802,42.08545995,0.0,3.0,210.6999969482422,0.0,9.92930222,1.14975905,-1.46126127,0.04875475,948,59.35828781,0.39215687
Sun Mar 23 00:08:24 CDT 2014,23-Mar-2014 00:08:23.065,-88.29763796,42.0854599,0.0,3.0,210.6999969482422,0.0,9.97750187,1.02866089,-1.50077915,0.05284733,936.5,60.16042709,0
Sun Mar 23 00:08:25 CDT 2014,23-Mar-2014 00:08:24.065,-88.29763788,42.0854599,0.0,3.0,210.6999969482422,0.0,9.90924358,1.00680637,-1.40542746,0.04437464,929.75,58.71657944,0
Sun Mar 23 00:08:26 CDT 2014,23-Mar-2014 00:08:25.065,-88.29763781,42.0854599,0.0,3.0,210.6999969482422,0.0,9.88289833,1.06832838,-1.4672488,0.04327875,942.5,58.15507889,0.39215687
Sun Mar 23 00:08:27 CDT 2014,23-Mar-2014 00:08:26.065,-88.29763777,42.0854599,0.0,3.0,210.6999969482422,0.0,9.89771748,0.97118044,-1.4361136,0.04330212,1025.5,72.11229706,0
Sun Mar 23 00:08:28 CDT 2014,23-Mar-2014 00:08:27.066,-88.29763775,42.08545989,0.0,3.0,210.6999969482422,0.0,9.82182503,1.019979,-1.15095663,0.03240401,702.75,73.15507507,0.39215687
Sun Mar 23 00:08:29 CDT 2014,23-Mar-2014 00:08:28.067,-88.29763773,42.08546049,0.0,4.0,210.8000030517578,0.0,9.93109798,0.99932188,-1.1919713,0.04368609,870.25,77.00534821,0
Sun Mar 23 00:08:30 CDT 2014,23-Mar-2014 00:08:29.072,-88.2976415,42.08545414,0.5,3.0,210.39999389648438,307.0,9.869277,0.94872713,-1.30139375,0.03834933,829,75.88235474,0
Sun Mar 23 00:08:31 CDT 2014,23-Mar-2014 00:08:30.067,-88.29764295,42.08545148,0.25,3.0,210.3000030517578,307.0,9.95938969,1.17700243,-1.31815886,0.05008608,814.25,75.72192383,0
Sun Mar 23 00:08:32 CDT 2014,23-Mar-2014 00:08:31.065,-88.29764601,42.08544695,0.5,4.0,210.3000030517578,307.0,9.86628342,1.02746344,-1.35498226,0.0395661,859.5,74.11764526,0
Sun Mar 23 00:08:33 CDT 2014,23-Mar-2014 00:08:32.066,-88.29765094,42.08544233,0.5,3.0,211.10000610351563,307.0,9.85894775,1.10829532,-1.48760653,0.04162544,838,75.16042328,0
Sun Mar 23 00:08:34 CDT 2014,23-Mar-2014 00:08:33.065,-88.29765391,42.08543872,0.5,3.0,211.60000610351563,307.0,9.87571335,0.93914706,-1.41171432,0.04042834,840.75,73.55615234,0.39215687
Sun Mar 23 00:08:35 CDT 2014,23-Mar-2014 00:08:34.074,-88.29765874,42.08543418,0.5,3.0,211.60000610351563,307.0,9.89607143,0.93405759,-1.38806355,0.04208905,853.75,74.11764526,0.39215687
Sun Mar 23 00:08:36 CDT 2014,23-Mar-2014 00:08:35.066,-88.2976664,42.0854283,0.75,3.0,211.39999389648438,307.0,9.91508102,0.83945435,-1.16038692,0.04020125,847.25,75.88235474,0
Sun Mar 23 00:08:37 CDT 2014,23-Mar-2014 00:08:36.065,-88.29767357,42.08541879,1.0,4.0,210.0,211.9,9.93349361,1.08793759,-1.4079721,0.04770488,835.75,74.91978455,0
Sun Mar 23 00:08:38 CDT 2014,23-Mar-2014 00:08:37.066,-88.2976836,42.08540714,1.25,4.0,209.8000030517578,214.7,9.91957188,0.74410266,-1.63789403,0.04666394,869.5,74.83956909,0
Sun Mar 23 00:08:39 CDT 2014,23-Mar-2014 00:08:38.065,-88.29769259,42.08539632,1.25,4.0,210.39999389648438,212.3,9.79533005,0.43065444,-2.21883583,0.04374212,800.25,74.67914581,0.39215687
Sun Mar 23 00:08:40 CDT 2014,23-Mar-2014 00:08:39.069,-88.29770043,42.08538615,1.25,4.0,210.39999389648438,209.7,9.7754221,1.1153307,-2.61266685,0.05669886,861.5,75.24063873,0
Sun Mar 23 00:08:41 CDT 2014,23-Mar-2014 00:08:40.066,-88.2977099,42.08537851,1.0,3.0,210.8000030517578,221.0,9.88903522,1.00141752,-1.18149304,0.03934497,797.25,74.75935364,0.39215687
Sun Mar 23 00:08:42 CDT 2014,23-Mar-2014 00:08:41.066,-88.2977189,42.08537165,1.0,3.0,210.3000030517578,225.3,9.9406786,0.60010207,-1.26651621,0.04234225,875.25,73.23529816,0.39215687
Sun Mar 23 00:08:43 CDT 2014,23-Mar-2014 00:08:42.065,-88.29773063,42.0853645,1.0,3.0,210.5,229.6,10.01282787,0.47316605,-1.5227834,0.05253798,810,72.43315125,0
Sun Mar 23 00:08:44 CDT 2014,23-Mar-2014 00:08:43.067,-88.29774376,42.08535666,1.25,3.0,210.6999969482422,229.7,9.87721062,0.61447221,-1.75060964,0.04345971,831.25,73.07485962,0
Sun Mar 23 00:08:45 CDT 2014,23-Mar-2014 00:08:44.074,-88.29775803,42.08534631,1.5,3.0,210.6999969482422,226.8,9.97136402,0.4099974,-1.5720309,0.04885167,809,71.63101959,0
Sun Mar 23 00:08:46 CDT 2014,23-Mar-2014 00:08:45.064,-88.29777158,42.08533382,1.5,3.0,210.89999389648438,221.2,9.81808281,0.83720899,-1.61124945,0.03679579,847.25,73.47593689,0
Sun Mar 23 00:08:47 CDT 2014,23-Mar-2014 00:08:46.065,-88.29778491,42.08531869,1.75,3.0,210.5,216.0,9.88813782,0.88061875,-1.84296751,0.04824513,847.25,74.59893036,0.39215687
Sun Mar 23 00:08:48 CDT 2014,23-Mar-2014 00:08:47.066,-88.29779802,42.08530451,1.75,3.0,211.10000610351563,215.6,9.90984249,1.1255095,-1.45991409,0.04650623,808.75,74.91978455,0.39215687
Sun Mar 23 00:08:49 CDT 2014,23-Mar-2014 00:08:48.068,-88.29780903,42.08529339,1.5,3.0,212.6999969482422,217.2,9.75072289,1.26741445,-1.51889145,0.03320688,745.75,72.35294342,0
Sun Mar 23 00:08:50 CDT 2014,23-Mar-2014 00:08:49.065,-88.2978206,42.08528495,1.25,4.0,213.39999389648438,223.9,10.09979725,0.68766999,-1.44644213,0.06140524,762.75,71.55080414,0.39215687
Sun Mar 23 00:08:51 CDT 2014,23-Mar-2014 00:08:50.064,-88.2978306,42.08528073,1.0,3.0,213.1999969482422,234.5,9.81808281,0.73841447,-2.01106787,0.04337293,862.75,72.83422089,0
Sun Mar 23 00:08:52 CDT 2014,23-Mar-2014 00:08:51.065,-88.29784081,42.08528038,1.0,3.0,214.1999969482422,253.3,9.91747665,0.19070344,-1.51949024,0.04143685,864,79.89305115,0